Regional Weather Roundup
Issued by NWS

Home | Current Version | Previous Version | Text Only | Print | Product List | Glossary On
Versions: 1 2 3 4 5 6 7 8 9 10 11 12 13 14 15 16 17 18 19 20 21 22 23 24 25 26 27 28 29 30 31 32 33 34 35 36 37 38 39 40 41 42 43 44 45 46 47 48 49 50
000
ASUS43 KDTX 250801
RWRMI
MICHIGAN HOURLY REGIONAL WEATHER ROUNDUP
NATIONAL WEATHER SERVICE DETROIT/PONTIAC MI
300 AM EST SUN JAN 25 2015

NOTE: "FAIR" INDICATES FEW OR NO CLOUDS BELOW 12,000 FEET WITH NO
SIGNIFICANT WEATHER AND/OR OBSTRUCTION TO VISIBILITY.

MIZ047>049-052>055-059>063-066>070-074>076-081>083-250900-
SOUTHEAST LOWER MICHIGAN

CITY           SKY/WX    TMP DP  RH WIND       PRES   REMARKS
ADRIAN         CLOUDY    33  31  92 CALM      29.70S
ALMA           CLOUDY    30  28  93 N10       29.74R WCI  21
ANN ARBOR      CLOUDY    34  33  96 CALM      29.70R FOG
BAD AXE        PTCLDY    22  15  75 N12       29.76R WCI  11
CARO           CLOUDY    25  18  74 CALM      29.76R
DETROIT CITY   CLOUDY    36  31  82 W3        29.71R
DETROIT        CLOUDY    34  33  96 CALM      29.72R FOG
FLINT          CLOUDY    31  25  78 N13       29.73R WCI  21
GROSSE ILE     DRIZZLE   36  32  87 CALM      29.70R
HILLSDALE      CLOUDY    35  34  95 CALM      29.67S FOG
HOWELL         CLOUDY    33  32  96 N7        29.69R FOG     WCI  27

CITY           SKY/WX    TMP DP  RH WIND       PRES   REMARKS
JACKSON        CLOUDY    34  32  92 N3        29.68S FOG
LAMBERTVILLE   CLOUDY    36  32  87 CALM      29.70S
LANSING        CLOUDY    32  28  85 N10       29.72R WCI  24
LAPEER         CLOUDY    28  23  82 NE8       29.73R WCI  20
MASON          LGT SNOW  32  31  96 CALM      29.70R
MONROE         CLOUDY    34  32  93 CALM      29.70R FOG
MT. CLEMENS    CLOUDY    33  28  80 N15       29.70R WCI  23
PONTIAC        MIX PCPN  31  27  85 NE12        N/A  WCI  22
PORT HOPE        N/A     24  15  68 N10       29.76R WCI  14
PORT HURON     CLOUDY    28  21  74 N8        29.74R WCI  20
TRI CITIES     CLOUDY    28  18  66 N12       29.77R WCI  18
TROY           CLOUDY    35  31  83 N8        29.72R WCI  29
SAGINAW HB     CLOUDY    27  21  80 NE18      29.76R WCI  13
$$
MIZ043>046-050>051-056>058-064>065-071>073-077>080-250900-
SOUTHWEST LOWER MICHIGAN

CITY           SKY/WX    TMP DP  RH WIND       PRES   REMARKS
BATTLE CREEK   CLOUDY    36  31  82 CALM      29.68R
BENTON HARBOR  CLOUDY    33  33 100 CALM      29.70R FOG
BIG RAPIDS     CLOUDY    24  20  82 N8        29.74R WCI  15
COLDWATER      CLOUDY    34  33  95 CALM      29.68R
FREMONT        CLOUDY    30  28  92 NE10      29.72R WCI  21
HOLLAND        CLOUDY    37  33  85 NE5       29.70R WCI  33
GRAND RAPIDS   CLOUDY    32  29  88 NE12      29.70R WCI  23
IONIA          CLOUDY    32  29  88 NE8       29.70R WCI  25
KALAMAZOO      CLOUDY    34  30  85 CALM      29.69R
LUDINGTON      CLOUDY    26  17  71 NE13G18   29.77R WCI  15
MARSHALL       CLOUDY    32  31  94 CALM      29.68R
MOUNT PLEASANT CLOUDY    26  19  72 N10       29.76R WCI  16
MUSKEGON       CLOUDY    33  29  85 NE9       29.72R WCI  25
SOUTH HAVEN    CLOUDY    35  32  90 CALM      29.70R FOG
$$
MIZ016>042-250900-
NORTHERN LOWER MICHIGAN

CITY           SKY/WX    TMP DP  RH WIND       PRES   REMARKS
ALPENA         PTCLDY    14   7  73 N13       29.82R WCI   0
BEAVER ISLAND  CLEAR     11   4  75 CALM      29.88R
BELLAIRE       CLEAR     15   9  75 N3        29.84R
CADILLAC       CLOUDY    16  11  82 N6        29.74R WCI   8
CHARLEVOIX     CLEAR     13   5  71 N12G20    29.88R WCI  -1
FRANKFORT      CLOUDY    22  15  75 NE6       29.82R WCI  14
GAYLORD        CLEAR      9   6  88 VRB5      29.76R WCI   1
GRAYLING       PTCLDY    10   8  88 NW3       29.78R
HARBOR SPRINGS CLEAR     10   2  72 CALM      29.84R
HOUGHTON LAKE  CLEAR     16   9  74 N6        29.76R WCI   7
MANISTEE       MOCLDY    21  12  68 NE10G17   29.80R WCI  10
OSCODA         CLEAR     18  10  73 N9        29.78R WCI   6
PELLSTON       CLEAR      7   1  76 N13       29.86R WCI  -9
ROGERS CITY    CLOUDY    15   9  78 N9        29.85R WCI   3
TRAVERSE CITY  CLOUDY    20  12  71 NE10      29.82R WCI   9
$$
MIZ007>008-015-250900-
EASTERN UPPER MICHIGAN

CITY           SKY/WX    TMP DP  RH WIND       PRES   REMARKS
KINROSS        MOCLDY     0  -2  92 NW6       29.87R WCI -12
MACKINAC ISLAN PTCLDY     7   1  75 N12       29.87R WCI  -8
S. S. MARIE    MOCLDY     2  -7  66 N6        29.87R WCI  -9
MUNISING         N/A     18   9  68 N16       29.90R WCI   3
$$
MIZ004>006-011>014-085-250900-
CENTRAL UPPER MICHIGAN

CITY           SKY/WX    TMP DP  RH WIND       PRES   REMARKS
MANISTIQUE     PTCLDY    12   6  77 N6        29.89R WCI   2
ESCANABA       CLOUDY    19   9  63 N8        29.88  WCI   9
MENOMINEE      CLOUDY    21  12  68 NE16      29.86R WCI   7
SAWYER-GWINN   FLURRIES  16  10  74 NE16      29.84R WCI   1
$$
MIZ001>003-009>011-084-250900-
WESTERN UPPER MICHIGAN

CITY           SKY/WX    TMP DP  RH WIND       PRES   REMARKS
IRON MOUNTAIN  CLOUDY    16   9  74 CALM      29.83R
HOUGHTON       CLOUDY    14   7  73 NE10      29.90R WCI   1
COPPER HARBOR    N/A     17   8  67 E12G22    29.95R WCI   4
IRONWOOD       CLOUDY    12  10  92 E5        29.85R WCI   4
$$

ABBREVIATIONS USED IN REMARKS
   TC - TEMPERATURE IN CELSIUS
  WCI - WIND CHILL INDEX
   HX - HEAT INDEX
  VSB - VISIBILITY




USA.gov is the U.S. government's official web portal to all federal, state and local government web resources and services.